RH
44 43 40 39 39 44 47 47 45 44 44 42 38 36 34 33 31 30 27 24 20 17 15 14 11 10 9 8 9 8 9 9
52 47 45 46 46 45 49 49 48 52 45 38 36 36 35 33 30 26 22 20 17 13 10 7 7 8 9 8 6 6 10 10
56 52 52 50 50 55 56 50 54 61 45 43 42 39 35 31 26 22 17 13 9 6 6 10 13 17 21 17 14 5 2 2
60 59 57 58 58 62 61 64 75 76 55 47 42 38 33 25 20 16 13 9 7 7 13 16 17 12 6 2 2 3 4 6
59 61 60 63 67 65 66 93 90 57 52 48 42 34 27 20 14 9 6 5 10 20 21 12 7 5 3 3 3 3 4 13
76 79 75 81 77 80 99 92 59 53 52 44 39 27 16 12 8 5 4 11 24 32 24 5 5 4 4 3 3 4 13 15
98 95 99 100 100 100 82 61 53 51 48 44 32 19 13 10 6 4 4 36 45 48 18 5 6 3 4 5 4 3 8 21
100 100 100 100 97 85 66 58 51 45 43 33 20 14 9 6 4 4 4 22 49 56 13 7 6 6 4 5 5 5 4 5
100 100 100 96 87 73 63 57 45 40 29 21 14 10 8 7 7 5 3 15 36 60 12 7 8 14 19 15 9 7 8 5
96 90 91 96 91 70 54 43 32 21 13 12 11 10 11 10 10 7 3 8 37 69 15 7 13 28 31 31 26 13 10 11
100 100 96 70 51 46 34 20 10 11 12 11 16 30 29 19 13 7 8 18 48 78 16 9 29 38 35 27 26 25 13 9
99 60 50 46 40 28 13 11 12 12 16 15 43 34 18 56 92 95 89 83 85 42 12 14 28 42 33 28 31 31 17 6
65 48 51 52 22 11 12 12 12 24 7 30 72 79 87 85 98 100 100 68 37 13 11 33 45 44 38 40 34 23 12 5
64 58 48 20 12 14 11 18 37 10 10 65 76 61 69 77 98 100 68 16 14 15 31 50 49 43 38 20 11 3 3 4
65 57 21 14 15 9 13 35 21 21 55 53 56 62 93 100 100 92 55 25 34 48 47 40 32 22 11 5 4 5 7 9
68 28 12 14 8 17 40 45 46 58 64 66 78 97 99 84 57 57 43 43 47 38 26 18 10 6 6 6 8 7 9 16
31 13 15 10 30 52 59 62 66 71 72 69 83 93 93 97 87 27 17 14 14 12 12 11 9 11 12 12 14 18 20 36
17 20 13 14 61 66 73 81 89 89 90 66 79 100 85 17 14 15 16 18 19 20 19 18 18 20 22 22 28 33 38 53
25 16 14 12 55 73 76 79 89 94 93 92 97 71 16 12 14 20 20 22 22 23 20 21 24 27 27 33 40 51 60 62
Wind_Speed
38 37 44 45 46 46 49 49 47 46 46 48 51 52 52 53 54 54 54 54 54 56 57 58 58 59 60 61 62 63 63 64
40 41 44 47 49 49 49 49 41 46 48 50 51 53 54 54 53 53 54 56 57 57 57 55 54 55 55 57 57 52 49 51
43 44 48 49 47 47 47 45 46 48 53 51 51 52 52 53 54 54 55 56 55 54 52 50 45 42 47 48 46 43 43 47
48 50 51 51 49 46 45 46 45 52 57 54 54 52 52 52 53 54 54 53 52 50 45 41 39 40 42 41 39 36 36 39
48 52 54 51 50 49 48 45 51 59 56 56 51 52 55 54 54 53 51 49 47 44 41 41 37 37 35 33 30 32 34 34
48 54 54 51 52 50 47 53 59 56 56 52 54 55 53 53 53 51 48 45 43 42 39 38 34 34 31 29 25 26 28 30
51 54 50 50 49 49 55 56 55 55 53 57 56 55 53 52 52 49 45 42 42 41 39 36 32 33 31 31 27 24 24 27
44 42 42 45 52 56 56 55 56 56 59 57 57 55 53 51 49 48 44 42 41 40 37 32 29 28 30 32 30 24 24 26
35 42 47 50 52 54 54 56 58 58 57 58 58 55 53 52 50 47 43 41 40 39 36 31 29 27 27 29 30 27 25 28
43 45 44 46 51 54 55 57 56 57 58 58 60 60 58 55 53 47 42 39 38 36 34 30 29 27 28 29 31 33 31 32
38 42 46 49 51 53 52 53 55 56 60 58 49 45 44 43 42 41 39 37 36 34 32 30 27 26 29 31 33 34 35 34
41 44 44 48 48 48 50 51 55 58 52 43 40 42 37 33 31 30 31 32 31 30 30 27 26 28 32 36 37 36 36 35
38 42 44 44 44 46 48 54 51 48 42 34 29 28 30 33 36 34 28 25 26 27 26 25 25 32 36 39 38 36 36 36
39 43 42 43 43 47 50 46 45 40 33 30 32 35 37 40 36 31 25 24 24 25 24 26 30 35 38 38 39 40 37 38
42 42 41 42 45 45 43 41 36 33 31 33 36 40 37 33 29 22 23 23 23 25 27 29 33 36 36 36 36 36 38 40
42 39 40 42 43 39 39 34 32 32 34 35 33 30 26 23 23 23 25 26 26 28 29 30 31 31 31 32 34 36 38 38
37 36 37 38 34 35 33 29 32 32 31 30 28 25 27 27 27 26 25 25 24 24 24 25 26 27 29 31 32 33 33 34
33 33 35 34 31 31 30 30 29 31 30 28 29 28 27 28 27 26 23 21 21 22 23 25 26 29 30 31 31 31 30 30
31 30 34 32 30 29 28 30 33 34 30 29 28 26 28 27 25 23 22 22 22 24 27 28 29 31 31 31 30 28 29 31
Wind_Direction
282 281 280 285 288 288 287 287 287 287 290 292 293 293 293 293 293 292 291 289 289 287 286 285 284 284 282 280 277 275 272 270
291 287 285 287 287 289 286 286 283 293 298 299 299 300 299 298 296 296 294 292 290 289 288 288 287 286 287 284 284 283 276 272
289 283 283 282 283 282 280 284 292 301 303 303 301 299 297 297 295 294 292 290 289 289 288 290 289 287 286 285 283 282 277 272
287 285 283 285 285 284 283 293 296 299 302 303 301 299 298 298 296 294 291 291 293 294 294 294 292 291 289 289 287 281 280 276
284 281 280 284 285 284 288 294 297 301 301 301 299 299 298 297 296 296 296 297 296 296 294 294 291 288 287 286 282 284 283 282
277 276 280 282 281 285 289 291 298 299 299 296 295 296 298 299 299 299 298 298 298 296 293 291 284 281 286 294 294 297 295 282
271 270 274 274 278 284 292 296 296 295 294 296 297 299 299 299 299 300 298 297 298 296 293 285 282 276 286 293 298 295 292 289
265 264 264 276 292 296 296 294 294 295 296 296 298 300 298 297 298 298 295 293 295 295 291 282 281 280 283 289 290 299 301 296
274 282 289 292 292 291 290 290 294 295 296 299 299 299 297 297 297 297 294 291 292 292 288 280 276 278 284 288 293 295 297 297
279 282 284 285 287 288 289 293 294 297 298 297 298 296 292 290 291 294 292 290 290 290 286 282 276 275 280 287 292 295 293 294
278 279 282 285 285 289 292 295 297 299 302 305 305 300 297 290 286 287 288 285 287 288 285 283 275 278 283 287 291 290 290 289
277 282 282 284 289 292 295 299 303 305 304 305 304 299 296 293 297 294 291 287 286 286 284 283 279 284 293 295 293 288 286 288
283 285 286 288 292 298 302 305 305 307 310 304 307 307 310 312 303 299 295 291 289 288 286 287 289 295 298 297 295 292 291 288
286 288 292 296 302 304 305 305 307 309 313 302 300 306 306 308 301 296 297 294 292 290 292 297 300 300 299 301 302 299 295 290
289 295 298 299 300 304 304 305 308 311 316 310 303 302 302 300 292 288 300 301 300 302 303 303 302 301 301 299 300 302 303 302
289 293 293 297 304 303 305 303 309 310 307 304 303 306 304 308 310 302 300 301 304 304 303 300 299 299 301 305 307 306 303 302
288 290 292 305 304 308 303 300 303 304 302 303 309 310 307 308 307 303 300 300 300 300 302 304 305 308 311 311 310 308 305 301
286 286 305 307 301 308 302 296 301 303 303 299 304 302 305 304 303 303 303 304 304 307 308 308 311 313 312 310 308 309 310 302
283 293 307 302 295 299 300 300 299 300 298 295 297 300 300 301 299 299 303 308 311 311 310 311 313 311 309 306 304 303 302 301